| time (UTC) | temp F | wind direction | speed knots | gust knots | rain 1hr in | rain 24hr in | rain mn in | humidity % | barometer mb |
| 20260507230022 | 56 | 53 | 0.0 | 1.7 | 0.00 | 0.05 | 0.00 | 94 | 1015.8 |
| 20260507224521 | 56 | 297 | 0.0 | 0.9 | 0.00 | 0.05 | 0.00 | 94 | 1015.9 |
| 20260507223020 | 56 | 297 | 0.0 | 0.0 | 0.00 | 0.05 | 0.00 | 94 | 1015.9 |
| 20260507221528 | 57 | 297 | 0.0 | 0.9 | 0.00 | 0.05 | 0.00 | 93 | 1015.9 |
| 20260507220017 | 57 | 20 | 0.9 | 6.1 | 0.00 | 0.05 | 0.05 | 93 | 1015.8 |
| 20260507214515 | 57 | 12 | 0.0 | 3.5 | 0.00 | 0.05 | 0.05 | 94 | 1015.7 |
| 20260507213022 | 57 | 306 | 0.0 | 0.0 | 0.00 | 0.05 | 0.05 | 93 | 1015.5 |
| 20260507211511 | 57 | 307 | 0.0 | 0.9 | 0.00 | 0.05 | 0.05 | 92 | 1015.6 |
| 20260507210013 | 57 | 307 | 0.0 | 0.9 | 0.00 | 0.05 | 0.05 | 93 | 1015.6 |
| 20260507204509 | 58 | 354 | 0.0 | 0.0 | 0.00 | 0.05 | 0.05 | 92 | 1015.6 |
| 20260507203008 | 59 | 354 | 0.0 | 1.7 | 0.00 | 0.05 | 0.05 | 91 | 1015.6 |
| 20260507201506 | 59 | 344 | 0.0 | 0.9 | 0.00 | 0.05 | 0.05 | 91 | 1015.5 |
| 20260507200004 | 59 | 343 | 0.9 | 1.7 | 0.00 | 0.05 | 0.05 | 90 | 1015.3 |
| 20260507194516 | 59 | 311 | 0.0 | 2.6 | 0.00 | 0.05 | 0.05 | 91 | 1015.3 |
| 20260507193002 | 60 | 296 | 0.0 | 0.9 | 0.00 | 0.05 | 0.05 | 92 | 1015.2 |
| 20260507191604 | 61 | 296 | 0.0 | 0.0 | 0.00 | 0.05 | 0.05 | 90 | 1015.2 |
| 20260507190113 | 61 | 296 | 0.0 | 2.6 | 0.00 | 0.05 | 0.05 | 90 | 1015.1 |
| 20260507184559 | 62 | 286 | 0.0 | 0.9 | 0.00 | 0.05 | 0.05 | 89 | 1015.2 |
| 20260507183116 | 62 | 285 | 0.0 | 1.7 | 0.00 | 0.05 | 0.05 | 87 | 1015.2 |
| 20260507181601 | 63 | 144 | 0.0 | 0.9 | 0.00 | 0.05 | 0.05 | 84 | 1015.1 |
| 20260507180104 | 63 | 247 | 0.0 | 1.7 | 0.00 | 0.05 | 0.05 | 83 | 1015.1 |
| 20260507174604 | 64 | 254 | 0.0 | 2.6 | 0.00 | 0.05 | 0.05 | 83 | 1015.2 |
| 20260507173110 | 64 | 118 | 0.0 | 2.6 | 0.00 | 0.05 | 0.05 | 82 | 1015.1 |
| 20260507171656 | 64 | 137 | 0.9 | 6.1 | 0.00 | 0.05 | 0.05 | 82 | 1015.3 |
| 20260507170057 | 65 | 136 | 2.6 | 6.1 | 0.00 | 0.05 | 0.05 | 80 | 1015.1 |
| 20260507164628 | 65 | 127 | 1.7 | 5.2 | 0.00 | 0.05 | 0.05 | 80 | 1015.0 |
| 20260507163056 | 66 | 141 | 1.7 | 5.2 | 0.00 | 0.05 | 0.05 | 79 | 1015.0 |
| 20260507161559 | 65 | 149 | 1.7 | 6.1 | 0.00 | 0.05 | 0.05 | 79 | 1015.1 |
| 20260507160052 | 67 | 127 | 1.7 | 5.2 | 0.00 | 0.05 | 0.05 | 75 | 1015.0 |
| 20260507154556 | 66 | 137 | 1.7 | 7.8 | 0.00 | 0.05 | 0.05 | 79 | 1015.0 |
| 20260507153049 | 66 | 143 | 3.5 | 7.8 | 0.00 | 0.05 | 0.05 | 77 | 1015.2 |
| 20260507151549 | 66 | 353 | 1.7 | 8.7 | 0.00 | 0.05 | 0.05 | 79 | 1015.1 |
| 20260507150050 | 65 | 127 | 2.6 | 7.8 | 0.00 | 0.05 | 0.05 | 78 | 1015.2 |
| 20260507144547 | 67 | 120 | 2.6 | 7.8 | 0.00 | 0.05 | 0.05 | 77 | 1015.1 |
| 20260507143147 | 66 | 117 | 2.6 | 7.8 | 0.00 | 0.05 | 0.05 | 79 | 1015.1 |
| 20260507141545 | 65 | 129 | 0.9 | 11.3 | 0.00 | 0.05 | 0.05 | 80 | 1015.3 |
| 20260507140046 | 66 | 99 | 4.3 | 8.7 | 0.00 | 0.05 | 0.05 | 79 | 1015.4 |
| 20260507134545 | 66 | 73 | 6.1 | 10.4 | 0.00 | 0.05 | 0.05 | 76 | 1015.4 |
| 20260507133049 | 66 | 120 | 3.5 | 9.6 | 0.00 | 0.05 | 0.05 | 77 | 1015.3 |
| 20260507131542 | 65 | 116 | 3.5 | 9.6 | 0.00 | 0.05 | 0.05 | 81 | 1015.3 |
| 20260507130043 | 65 | 79 | 4.3 | 9.6 | 0.00 | 0.05 | 0.05 | 80 | 1015.3 |
| 20260507124546 | 65 | 71 | 0.0 | 6.1 | 0.00 | 0.05 | 0.05 | 81 | 1015.3 |
| 20260507123042 | 65 | 26 | 1.7 | 7.8 | 0.00 | 0.05 | 0.05 | 80 | 1015.2 |
| 20260507121539 | 65 | 93 | 1.7 | 5.2 | 0.00 | 0.05 | 0.05 | 78 | 1015.1 |
| 20260507120038 | 66 | 63 | 1.7 | 8.7 | 0.00 | 0.05 | 0.05 | 77 | 1015.2 |
| 20260507114555 | 65 | 275 | 4.3 | 9.6 | 0.00 | 0.05 | 0.05 | 80 | 1015.3 |
| 20260507113059 | 65 | 72 | 3.5 | 9.6 | 0.00 | 0.05 | 0.05 | 78 | 1015.5 |
| 20260507111540 | 65 | 272 | 1.7 | 7.0 | 0.00 | 0.05 | 0.05 | 79 | 1015.6 |
| 20260507110033 | 64 | 86 | 1.7 | 4.3 | 0.00 | 0.05 | 0.05 | 81 | 1015.5 |
| 20260507104540 | 64 | 177 | 1.7 | 5.2 | 0.00 | 0.05 | 0.05 | 81 | 1015.5 |
| 20260507103032 | 64 | 94 | 2.6 | 7.0 | 0.00 | 0.05 | 0.05 | 81 | 1015.5 |
| 20260507101531 | 62 | 84 | 1.7 | 6.1 | 0.00 | 0.05 | 0.05 | 83 | 1015.6 |
| 20260507100029 | 63 | 120 | 7.0 | 12.2 | 0.00 | 0.05 | 0.05 | 83 | 1015.5 |
| 20260507094533 | 65 | 68 | 7.0 | 14.8 | 0.00 | 0.05 | 0.05 | 83 | 1015.4 |
| 20260507093033 | 64 | 107 | 7.8 | 13.0 | 0.00 | 0.05 | 0.05 | 81 | 1015.4 |
| 20260507091525 | 63 | 110 | 4.3 | 10.4 | 0.00 | 0.05 | 0.05 | 82 | 1015.4 |
| 20260507090023 | 63 | 108 | 6.1 | 12.2 | 0.01 | 0.05 | 0.05 | 81 | 1015.4 |
| 20260507084525 | 63 | 115 | 0.9 | 8.7 | 0.01 | 0.05 | 0.05 | 84 | 1015.2 |
| 20260507083019 | 62 | 120 | 4.3 | 12.2 | 0.01 | 0.05 | 0.05 | 86 | 1015.0 |
| 20260507081530 | 61 | 124 | 4.3 | 13.0 | 0.01 | 0.05 | 0.05 | 87 | 1014.9 |
| 20260507080015 | 61 | 146 | 6.1 | 13.0 | 0.02 | 0.04 | 0.04 | 87 | 1014.7 |
| 20260507074513 | 61 | 181 | 5.2 | 11.3 | 0.04 | 0.04 | 0.04 | 88 | 1014.6 |
| 20260507073013 | 61 | 124 | 4.3 | 9.6 | 0.04 | 0.04 | 0.04 | 87 | 1014.3 |
| 20260507071508 | 60 | 165 | 5.2 | 11.3 | 0.04 | 0.04 | 0.04 | 88 | 1014.2 |
| 20260507070012 | 61 | 116 | 3.5 | 9.6 | 0.02 | 0.21 | 0.02 | 85 | 1014.1 |
| 20260507064504 | 63 | 87 | 4.3 | 9.6 | 0.00 | 0.19 | 0.00 | 79 | 1014.0 |
| 20260507063001 | 61 | 49 | 3.5 | 7.0 | 0.00 | 0.19 | 0.00 | 83 | 1014.0 |
| 20260507061701 | 61 | 110 | 1.7 | 5.2 | 0.00 | 0.19 | 0.00 | 84 | 1013.9 |
| 20260507060104 | 61 | 51 | 2.6 | 9.6 | 0.00 | 0.19 | 0.00 | 83 | 1013.9 |
| 20260507054558 | 61 | 27 | 3.5 | 7.8 | 0.00 | 0.19 | 0.00 | 84 | 1013.8 |
| 20260507053057 | 61 | 82 | 0.9 | 4.3 | 0.00 | 0.19 | 0.00 | 84 | 1013.7 |
| 20260507051555 | 61 | 32 | 1.7 | 7.8 | 0.00 | 0.19 | 0.00 | 84 | 1013.7 |
| 20260507050051 | 61 | 73 | 2.6 | 5.2 | 0.00 | 0.19 | 0.00 | 86 | 1013.4 |
| 20260507044604 | 60 | 34 | 1.7 | 6.1 | 0.00 | 0.19 | 0.00 | 87 | 1013.3 |
| 20260507043100 | 60 | 71 | 1.7 | 4.3 | 0.00 | 0.19 | 0.00 | 87 | 1013.2 |
| 20260507041543 | 60 | 83 | 0.0 | 4.3 | 0.00 | 0.19 | 0.00 | 87 | 1013.2 |
| 20260507040043 | 60 | 71 | 2.6 | 9.6 | 0.00 | 0.19 | 0.00 | 87 | 1013.1 |
| 20260507034542 | 60 | 60 | 0.9 | 4.3 | 0.00 | 0.19 | 0.00 | 87 | 1013.1 |
| 20260507033042 | 60 | 40 | 3.5 | 7.8 | 0.00 | 0.19 | 0.00 | 87 | 1013.1 |
| 20260507031545 | 60 | 113 | 0.9 | 5.2 | 0.00 | 0.19 | 0.00 | 88 | 1013.0 |
| 20260507030039 | 60 | 86 | 1.7 | 4.3 | 0.00 | 0.22 | 0.00 | 88 | 1013.1 |
| 20260507024542 | 60 | 69 | 1.7 | 5.2 | 0.00 | 0.22 | 0.00 | 87 | 1013.0 |
| 20260507023037 | 60 | 110 | 0.9 | 5.2 | 0.00 | 0.22 | 0.00 | 87 | 1013.0 |
| 20260507021538 | 60 | 56 | 0.9 | 2.6 | 0.00 | 0.22 | 0.00 | 88 | 1013.1 |
| 20260507020047 | 61 | 123 | 1.7 | 6.1 | 0.00 | 0.68 | 0.00 | 87 | 1013.0 |
| 20260507014535 | 61 | 130 | 0.0 | 3.5 | 0.00 | 0.68 | 0.00 | 87 | 1012.9 |
| 20260507013032 | 61 | 80 | 0.9 | 6.1 | 0.00 | 0.68 | 0.00 | 86 | 1012.8 |
| 20260507011541 | 61 | 107 | 1.7 | 6.1 | 0.00 | 0.68 | 0.00 | 86 | 1013.0 |
| 20260507010034 | 61 | 81 | 0.0 | 4.3 | 0.00 | 1.73 | 0.00 | 86 | 1013.1 |
| 20260507004531 | 61 | 186 | 1.7 | 6.1 | 0.00 | 1.73 | 0.00 | 86 | 1013.2 |
| 20260507003029 | 61 | 136 | 2.6 | 7.0 | 0.00 | 1.73 | 0.00 | 86 | 1013.2 |
| 20260507001600 | 61 | 91 | 3.5 | 7.8 | 0.00 | 1.73 | 0.00 | 86 | 1013.0 |
| 20260507000025 | 61 | 149 | 3.5 | 7.8 | 0.00 | 1.73 | 0.00 | 85 | 1013.0 |
| 20260506234524 | 61 | 129 | 2.6 | 8.7 | 0.00 | 1.73 | 0.00 | 84 | 1013.1 |
| 20260506233023 | 61 | 134 | 3.5 | 7.0 | 0.00 | 1.73 | 0.00 | 84 | 1013.2 |
| 20260506231521 | 62 | 174 | 1.7 | 7.8 | 0.00 | 1.73 | 0.00 | 83 | 1013.1 |